Location: Unspecified
(0.0000°N, 0.0000°E)
Time: 17:30:59
(UTC+00:00)

ATLAS 5 CENTAUR DEB - Pass Details

Date: 06 March 2026
Orbit: 8253 x 35273 km, 19.8° (Epoch: 17 April)

Event Time Altitude Azimuth Distance (km) Brightness Sun altitude
Rises 10:57:34 0° 291° (WNW) 14,010 ? 70.8°
Reaches altitude 10° 11:06:37 10° 291° (WNW) 12,405 ? 72.9°
Maximum altitude 11:53:17 88° 204° (SSW) 9,888 ? 82.9°
Enters shadow 21:09:29 47° 90° (E) 28,728 ? -44.3°
Exits shadow 22:19:07 37° 78° (ENE) 22,480 ? -61.5°
Drops below altitude 10° 23:15:03 10° 71° (ENE) 17,930 ? -75.0°
Sets 23:28:04 0° 70° (ENE) 17,365 ? -78.0°
